Location: Asheville, NC
(35.6000°N, 82.5500°W)
Time: 23:45:44

YUBILEINY - Pass Details

Date: 17 March 2018
Orbit: 1478 x 1509 km, 82.5° (Epoch: 19 March)

Event Time Altitude Azimuth Distance (km) Brightness Sun altitude
Rises 05:23:43 0° 357° (N) 4,614 ? -27.7°
Reaches altitude 10° 05:26:41 10° 1° (N) 3,635 ? -27.1°
Maximum altitude 05:35:17 58° 80° (E) 1,702 ? -25.5°
Drops below altitude 10° 05:43:52 10° 158° (SSE) 3,641 ? -23.8°
Sets 05:46:49 0° 162° (SSE) 4,623 ? -23.2°
